FW7834 Weather Reports


time (UTC)temp
C
wind
direction
speed
KPH
gust
KPH
rain 1hr
cm
rain 24hr
cm
rain mn
cm
humidity
%
barometer
mb
20260505070341 12 232 6.4 9.7 0.00 0.00 0.00 85 1012.8
20260505065836 12 228 4.8 8.0 0.00 0.00 0.00 85 1012.7
20260505065333 13 243 8.0 12.9 0.00 0.00 0.00 84 1012.5
20260505064830 13 242 8.0 11.3 0.00 0.00 0.00 83 1012.6
20260505064327 13 253 4.8 9.7 0.00 0.00 0.00 83 1012.5
20260505063826 13 255 6.4 11.3 0.00 0.00 0.00 82 1012.2
20260505063321 13 242 8.0 11.3 0.00 0.00 0.00 82 1012.1
20260505062818 13 239 9.7 12.9 0.00 0.00 0.00 82 1012.0
20260505062316 13 272 8.0 11.3 0.00 0.00 0.00 83 1012.0
20260505061812 13 224 6.4 9.7 0.00 0.00 0.00 83 1012.2
20260505061310 13 253 6.4 8.0 0.00 0.00 0.00 83 1012.1
20260505060808 13 262 6.4 8.0 0.00 0.00 0.00 83 1012.0
20260505060304 13 195 1.6 1.6 0.00 0.00 0.00 83 1012.3
20260505055800 13 225 4.8 4.8 0.00 0.00 0.00 82 1012.0
20260505055256 13 246 8.0 9.7 0.00 0.00 0.00 82 1011.9
20260505054753 13 264 6.4 9.7 0.00 0.00 0.00 81 1012.0
20260505054251 13 282 6.4 11.3 0.00 0.00 0.00 80 1012.2
20260505053749 13 234 4.8 4.8 0.00 0.00 0.00 79 1012.0
20260505053246 13 248 9.7 12.9 0.00 0.00 0.00 79 1011.7
20260505052743 13 225 6.4 11.3 0.00 0.00 0.00 78 1011.9
20260505052240 14 247 9.7 14.5 0.00 0.00 0.00 78 1011.7
20260505051736 14 239 11.3 12.9 0.00 0.00 0.00 77 1011.6
20260505051234 14 247 8.0 9.7 0.00 0.00 0.00 77 1011.7
20260505050732 14 264 3.2 4.8 0.00 0.00 0.00 77 1011.8
20260505050230 14 217 8.0 11.3 0.00 0.00 0.00 77 1011.6
20260505041700 14 206 3.2 3.2 0.00 0.00 0.00 76 1011.3
20260505041157 14 227 3.2 8.0 0.00 0.00 0.00 76 1011.1
20260505040654 14 197 4.8 9.7 0.00 0.00 0.00 76 1011.0
20260505040152 14 247 4.8 8.0 0.00 0.00 0.00 76 1011.0
20260505035648 14 255 3.2 4.8 0.00 0.00 0.00 75 1011.2
20260505035144 15 244 4.8 9.7 0.00 0.00 0.00 75 1010.8
20260505034641 15 223 1.6 3.2 0.00 0.00 0.00 74 1010.9
20260505034138 15 57 3.2 3.2 0.00 0.00 0.00 74 1010.6
20260505033634 15 230 4.8 4.8 0.00 0.00 0.00 74 1010.8
20260505033133 15 269 3.2 3.2 0.00 0.00 0.00 74 1010.5
20260505032631 15 249 3.2 3.2 0.00 0.00 0.00 75 1010.6
20260505032127 15 260 1.6 1.6 0.00 0.00 0.00 75 1010.7
20260505031624 15 241 4.8 4.8 0.00 0.00 0.00 75 1010.4
20260505031120 15 241 3.2 3.2 0.00 0.00 0.00 75 1010.5
20260505030617 15 242 11.3 14.5 0.00 0.00 0.00 73 1010.3
20260505030113 15 222 6.4 8.0 0.00 0.00 0.00 73 1010.4
20260505025609 15 251 3.2 3.2 0.00 0.00 0.00 73 1010.5
20260505025108 16 295 3.2 4.8 0.00 0.00 0.00 72 1010.2
20260505024605 16 254 4.8 8.0 0.00 0.00 0.00 72 1010.3
20260505024102 16 220 11.3 14.5 0.00 0.00 0.00 71 1010.3
20260505023559 16 249 4.8 4.8 0.00 0.00 0.00 71 1010.3
20260505023057 16 239 3.2 3.2 0.00 0.00 0.00 71 1010.3
20260505022554 16 241 6.4 9.7 0.00 0.00 0.00 70 1010.3
20260505022051 16 239 8.0 9.7 0.00 0.00 0.00 70 1010.4
20260505021547 17 257 6.4 8.0 0.00 0.00 0.00 69 1010.3
20260505021044 17 236 6.4 8.0 0.00 0.00 0.00 68 1010.3
20260505020544 17 224 6.4 8.0 0.00 0.00 0.00 67 1010.1
20260505020041 18 230 4.8 8.0 0.00 0.00 0.00 66 1010.4
20260505015538 19 260 8.0 11.3 0.00 0.00 0.00 63 1009.9
20260505015035 20 243 4.8 4.8 0.00 0.00 0.00 63 1010.3
20260505014532 20 266 8.0 9.7 0.00 0.00 0.00 62 1010.2
20260505014029 20 225 6.4 9.7 0.00 0.00 0.00 62 1010.3
20260505013526 21 261 11.3 12.9 0.00 0.00 0.00 61 1009.9
20260505013024 21 259 6.4 8.0 0.00 0.00 0.00 59 1010.1
20260505012522 21 247 6.4 8.0 0.00 0.00 0.00 58 1010.3
20260505012019 21 257 8.0 11.3 0.00 0.00 0.00 57 1010.0
20260505011514 22 229 8.0 11.3 0.00 0.00 0.00 54 1010.1
20260505011011 22 241 8.0 9.7 0.00 0.00 0.00 51 1010.2
20260505010506 22 229 4.8 8.0 0.00 0.00 0.00 50 1010.4
20260505010003 22 243 8.0 12.9 0.00 0.00 0.00 49 1010.3
20260505005500 22 256 6.4 9.7 0.00 0.00 0.00 49 1010.2
20260505004957 23 256 8.0 11.3 0.00 0.00 0.00 47 1010.1
20260505004454 22 238 3.2 4.8 0.00 0.00 0.00 49 1010.2
20260505003950 22 255 8.0 9.7 0.00 0.00 0.00 48 1010.1
20260505003448 22 255 4.8 8.0 0.00 0.00 0.00 50 1010.3
20260505002944 22 244 8.0 9.7 0.00 0.00 0.00 50 1010.3
20260505002440 22 242 6.4 8.0 0.00 0.00 0.00 49 1010.4
20260505001939 23 253 4.8 4.8 0.00 0.00 0.00 50 1010.4
20260505001436 23 251 6.4 9.7 0.00 0.00 0.00 49 1010.3
20260505000933 22 253 6.4 8.0 0.00 0.00 0.00 51 1010.4
20260505000431 22 254 4.8 4.8 0.00 0.00 0.00 52 1010.2
20260504235927 22 245 4.8 8.0 0.00 0.00 0.00 49 1010.3
20260504235425 23 265 6.4 8.0 0.00 0.00 0.00 50 1010.5
20260504234921 23 254 4.8 8.0 0.00 0.00 0.00 50 1010.3
20260504234419 23 244 6.4 9.7 0.00 0.00 0.00 50 1010.3
20260504233915 22 243 8.0 11.3 0.00 0.00 0.00 51 1010.7
20260504233411 23 268 8.0 9.7 0.00 0.00 0.00 50 1010.4
20260504232908 23 258 3.2 3.2 0.00 0.00 0.00 49 1010.6
20260504232405 23 235 9.7 11.3 0.00 0.00 0.00 50 1010.5
20260504231902 23 243 6.4 8.0 0.00 0.00 0.00 51 1010.5
20260504231358 23 268 9.7 11.3 0.00 0.00 0.00 50 1010.4
20260504230854 23 215 4.8 4.8 0.00 0.00 0.00 54 1010.5
20260504230352 23 254 6.4 9.7 0.00 0.00 0.00 53 1010.4
20260504225850 23 245 4.8 4.8 0.00 0.00 0.00 53 1010.7
20260504225347 23 225 4.8 4.8 0.00 0.00 0.00 54 1010.4
20260504224844 23 262 8.0 11.3 0.00 0.00 0.00 53 1010.5
20260504224341 24 256 9.7 11.3 0.00 0.00 0.00 51 1010.6
20260504223837 25 229 6.4 8.0 0.00 0.00 0.00 51 1010.7
20260504223333 24 238 4.8 4.8 0.00 0.00 0.00 52 1010.6
20260504222830 23 252 4.8 4.8 0.00 0.00 0.00 54 1010.7
20260504222327 23 272 6.4 8.0 0.00 0.00 0.00 54 1010.8
20260504221826 23 244 6.4 9.7 0.00 0.00 0.00 55 1010.5
20260504221321 23 216 4.8 8.0 0.00 0.00 0.00 53 1010.9
20260504220819 25 246 6.4 9.7 0.00 0.00 0.00 53 1010.8
20260504220315 25 236 4.8 8.0 0.00 0.00 0.00 50 1010.8
20260504215813 25 243 4.8 4.8 0.00 0.00 0.00 48 1010.7
20260504215309 26 265 3.2 3.2 0.00 0.00 0.00 48 1010.7
20260504214805 26 232 3.2 3.2 0.00 0.00 0.00 47 1010.8
20260504214302 26 269 4.8 8.0 0.00 0.00 0.00 46 1011.0
20260504213758 26 257 4.8 4.8 0.00 0.00 0.00 44 1010.8
20260504213254 26 247 1.6 1.6 0.00 0.00 0.00 47 1011.0
20260504212752 26 228 6.4 9.7 0.00 0.00 0.00 42 1010.9
20260504212248 26 243 3.2 3.2 0.00 0.00 0.00 43 1011.0
20260504211746 26 261 4.8 4.8 0.00 0.00 0.00 42 1011.0
20260504211242 26 254 4.8 8.0 0.00 0.00 0.00 45 1011.1
20260504210739 27 230 1.6 1.6 0.00 0.00 0.00 44 1011.1
20260504210236 26 280 1.6 1.6 0.00 0.00 0.00 46 1011.0
20260504205733 26 241 1.6 1.6 0.00 0.00 0.00 46 1011.3
20260504205231 26 254 1.6 3.2 0.00 0.00 0.00 48 1011.2
20260504204729 25 248 3.2 3.2 0.00 0.00 0.00 45 1011.0
20260504204227 25 244 3.2 3.2 0.00 0.00 0.00 46 1011.1
20260504203726 25 217 0.0 1.6 0.00 0.00 0.00 48 1011.2
20260504203223 25 262 4.8 4.8 0.00 0.00 0.00 46 1011.5
20260504202723 25 225 1.6 1.6 0.00 0.00 0.00 49 1011.3
20260504202221 25 251 4.8 8.0 0.00 0.00 0.00 48 1011.3
20260504201718 25 239 4.8 4.8 0.00 0.00 0.00 46 1011.3
20260504201215 25 285 1.6 1.6 0.00 0.00 0.00 51 1011.4
20260504200712 25 251 1.6 1.6 0.00 0.00 0.00 52 1011.5
20260504200208 24 254 0.0 1.6 0.00 0.00 0.00 49 1011.5
20260504195705 24 232 0.0 1.6 0.00 0.00 0.00 51 1011.5
20260504195201 25 245 3.2 4.8 0.00 0.00 0.00 48 1011.4
20260504194658 24 190 1.6 1.6 0.00 0.00 0.00 51 1011.7
20260504194154 24 174 3.2 3.2 0.00 0.00 0.00 52 1011.5
20260504193651 23 219 1.6 1.6 0.00 0.00 0.00 49 1011.4
20260504193148 24 241 1.6 1.6 0.00 0.00 0.00 47 1011.5
20260504192646 24 246 4.8 8.0 0.00 0.00 0.00 48 1011.4
20260504192144 24 269 1.6 1.6 0.00 0.00 0.00 48 1011.4
20260504191642 24 235 1.6 3.2 0.00 0.00 0.00 49 1011.5
20260504191138 23 132 3.2 3.2 0.00 0.00 0.00 51 1011.3
20260504190634 23 146 1.6 1.6 0.00 0.00 0.00 52 1011.6
20260504190131 23 177 3.2 8.0 0.00 0.00 0.00 50 1011.6
20260504185627 23 233 1.6 1.6 0.00 0.00 0.00 51 1011.4
20260504185124 23 216 3.2 3.2 0.00 0.00 0.00 52 1011.6
20260504184620 23 161 3.2 3.2 0.00 0.00 0.00 50 1011.7
20260504184115 23 174 0.0 0.0 0.00 0.00 0.00 50 1011.4
20260504183613 23 195 3.2 3.2 0.00 0.00 0.00 52 1011.6
20260504183110 23 198 1.6 1.6 0.00 0.00 0.00 53 1011.4
20260504182607 23 124 3.2 3.2 0.00 0.00 0.00 51 1011.7
20260504182105 23 268 1.6 1.6 0.00 0.00 0.00 52 1011.7
20260504181602 23 181 1.6 3.2 0.00 0.00 0.00 51 1011.6
20260504181100 22 105 1.6 1.6 0.00 0.00 0.00 53 1011.7
20260504180558 22 211 1.6 1.6 0.00 0.00 0.00 55 1011.7
20260504180057 22 214 1.6 1.6 0.00 0.00 0.00 53 1011.9
20260504175554 22 198 1.6 1.6 0.00 0.00 0.00 56 1011.9
20260504175050 22 220 1.6 3.2 0.00 0.00 0.00 56 1011.9
20260504174549 21 250 4.8 4.8 0.00 0.00 0.00 55 1011.8
20260504174045 21 254 4.8 4.8 0.00 0.00 0.00 55 1011.9
20260504173542 21 241 4.8 4.8 0.00 0.00 0.00 55 1011.7
20260504173040 21 247 1.6 3.2 0.00 0.00 0.00 57 1011.7
20260504172535 20 238 0.0 1.6 0.00 0.00 0.00 61 1011.7
20260504172032 20 253 4.8 4.8 0.00 0.00 0.00 60 1011.6
20260504171529 20 255 3.2 3.2 0.00 0.00 0.00 63 1011.7
20260504171026 20 244 3.2 3.2 0.00 0.00 0.00 65 1011.8
20260504170522 19 222 1.6 1.6 0.00 0.00 0.00 67 1011.8
20260504160442 17 234 0.0 0.0 0.00 0.00 0.00 71 1011.8
20260504150906 15 168 0.0 0.0 0.00 0.00 0.00 79 1011.7
20260504150403 15 108 1.6 1.6 0.00 0.00 0.00 80 1011.6
20260504141333 13 253 0.0 0.0 0.00 0.00 0.00 82 1011.3
20260504140829 13 251 0.0 0.0 0.00 0.00 0.00 84 1011.4
20260504140325 12 257 0.0 0.0 0.00 0.00 0.00 85 1011.5
20260504130754 8 256 0.0 0.0 0.00 0.00 0.00 97 1011.0
20260504130250 8 256 0.0 0.0 0.00 0.00 0.00 96 1010.9
20260504120214 9 258 0.0 0.0 0.00 0.00 0.00 95 1010.8
20260504110641 10 256 0.0 0.0 0.00 0.00 0.00 93 1010.9
20260504110137 10 257 0.0 0.0 0.00 0.00 0.00 92 1011.0
20260504100603 10 258 0.0 0.0 0.00 0.00 0.00 92 1011.0
20260504081956 11 257 0.0 0.0 0.00 0.00 0.00 85 1011.1
20260504081454 11 256 0.0 0.0 0.00 0.00 0.00 85 1010.9
20260504080949 11 255 0.0 0.0 0.00 0.00 0.00 86 1010.8
20260504080446 11 255 0.0 0.0 0.00 0.00 0.00 86 1010.9